Time,TemperatureF,DewpointF,PressureIn,WindDirection,WindDirectionDegrees,WindSpeedMPH,WindSpeedGustMPH,Humidity,HourlyPrecipIn,Conditions,Clouds,dailyrainin,SoftwareType,DateUTC
2013-07-15 00:02:00,58.0,37.0,-100.00,NW,326,3.0,4.0,46,0.00,,,0.00,,2013-07-15 06:02:00,
2013-07-15 00:11:00,57.0,37.0,-100.00,NNW,335,3.0,4.0,47,0.00,,,0.00,,2013-07-15 06:11:00,
2013-07-15 00:22:00,57.0,37.0,-100.00,NNW,335,3.0,4.0,47,0.00,,,0.00,,2013-07-15 06:22:00,
2013-07-15 00:32:00,58.0,37.0,-100.00,North,352,4.0,5.0,44,0.00,,,0.00,,2013-07-15 06:32:00,
2013-07-15 00:42:00,58.0,35.0,-100.00,NW,319,4.0,5.0,42,0.00,,,0.00,,2013-07-15 06:42:00,
2013-07-15 00:53:00,58.0,35.0,-100.00,NW,319,4.0,5.0,42,0.00,,,0.00,,2013-07-15 06:53:00,
2013-07-15 01:01:00,58.0,35.0,-100.00,NNW,330,4.0,5.0,43,0.00,,,0.00,,2013-07-15 07:01:00,
2013-07-15 01:11:00,58.0,35.0,-100.00,NNW,330,4.0,5.0,43,0.00,,,0.00,,2013-07-15 07:11:00,
2013-07-15 01:21:00,57.0,35.0,-100.00,NW,305,3.0,4.0,44,0.00,,,0.00,,2013-07-15 07:21:00,
2013-07-15 01:32:00,57.0,35.0,-100.00,NW,305,3.0,4.0,44,0.00,,,0.00,,2013-07-15 07:32:00,
2013-07-15 01:43:00,56.0,36.0,-100.00,WNW,301,2.0,3.0,47,0.00,,,0.00,,2013-07-15 07:43:00,
2013-07-15 01:53:00,56.0,36.0,-100.00,WNW,301,2.0,3.0,47,0.00,,,0.00,,2013-07-15 07:53:00,
2013-07-15 02:01:00,56.0,35.0,-100.00,NW,309,2.0,3.0,45,0.00,,,0.00,,2013-07-15 08:01:00,
2013-07-15 02:11:00,56.0,35.0,-100.00,NW,309,2.0,3.0,45,0.00,,,0.00,,2013-07-15 08:11:00,
2013-07-15 02:22:00,56.0,37.0,-100.00,West,277,2.0,3.0,49,0.00,,,0.00,,2013-07-15 08:22:00,
2013-07-15 02:32:00,56.0,37.0,-100.00,West,277,2.0,3.0,49,0.00,,,0.00,,2013-07-15 08:32:00,
2013-07-15 02:43:00,55.0,38.0,-100.00,WNW,285,2.0,2.0,53,0.00,,,0.00,,2013-07-15 08:43:00,
2013-07-15 02:53:00,55.0,38.0,-100.00,WNW,285,2.0,2.0,53,0.00,,,0.00,,2013-07-15 08:53:00,
2013-07-15 03:01:00,54.0,37.0,-100.00,WNW,292,2.0,2.0,54,0.00,,,0.00,,2013-07-15 09:01:00,
2013-07-15 03:11:00,54.0,38.0,-100.00,NW,309,1.0,2.0,54,0.00,,,0.00,,2013-07-15 09:11:00,
2013-07-15 03:22:00,54.0,38.0,-100.00,NW,309,1.0,2.0,54,0.00,,,0.00,,2013-07-15 09:22:00,
2013-07-15 03:32:00,54.0,38.0,-100.00,NW,308,0.0,1.0,54,0.00,,,0.00,,2013-07-15 09:32:00,
2013-07-15 03:42:00,53.0,37.0,-100.00,NNW,328,0.0,1.0,54,0.00,,,0.00,,2013-07-15 09:42:00,
2013-07-15 03:52:00,53.0,37.0,-100.00,NNW,328,0.0,1.0,54,0.00,,,0.00,,2013-07-15 09:52:00,
2013-07-15 04:02:00,54.0,37.0,-100.00,WNW,284,1.0,2.0,51,0.00,,,0.00,,2013-07-15 10:02:00,
2013-07-15 04:11:00,57.0,35.0,-100.00,SSE,168,4.0,6.0,43,0.00,,,0.00,,2013-07-15 10:11:00,
2013-07-15 04:21:00,57.0,35.0,-100.00,SSE,168,4.0,6.0,43,0.00,,,0.00,,2013-07-15 10:21:00,
2013-07-15 04:32:00,59.0,34.0,-100.00,SE,127,2.0,5.0,39,0.00,,,0.00,,2013-07-15 10:32:00,
2013-07-15 04:42:00,56.0,36.0,-100.00,South,186,1.0,2.0,46,0.00,,,0.00,,2013-07-15 10:42:00,
2013-07-15 04:53:00,56.0,36.0,-100.00,South,186,1.0,2.0,46,0.00,,,0.00,,2013-07-15 10:53:00,
2013-07-15 05:01:00,53.0,38.0,-100.00,WNW,301,1.0,2.0,57,0.00,,,0.00,,2013-07-15 11:01:00,
2013-07-15 05:11:00,52.0,37.0,-100.00,SSW,193,1.0,1.0,56,0.00,,,0.00,,2013-07-15 11:11:00,
2013-07-15 05:22:00,52.0,37.0,-100.00,SSW,193,1.0,1.0,56,0.00,,,0.00,,2013-07-15 11:22:00,
2013-07-15 05:32:00,52.0,37.0,-100.00,SSW,193,1.0,1.0,56,0.00,,,0.00,,2013-07-15 11:32:00,
2013-07-15 05:42:00,53.0,36.0,-100.00,SSE,151,2.0,3.0,51,0.00,,,0.00,,2013-07-15 11:42:00,
2013-07-15 06:01:00,53.0,36.0,-100.00,SSE,151,2.0,3.0,51,0.00,,,0.00,,2013-07-15 12:01:00,
2013-07-15 06:11:00,53.0,36.0,-100.00,SSE,150,2.0,3.0,52,0.00,,,0.00,,2013-07-15 12:11:00,
2013-07-15 06:22:00,53.0,36.0,-100.00,SSE,150,2.0,3.0,52,0.00,,,0.00,,2013-07-15 12:22:00,
2013-07-15 06:32:00,53.0,36.0,-100.00,SSE,147,3.0,3.0,51,0.00,,,0.00,,2013-07-15 12:32:00,
2013-07-15 06:42:00,54.0,35.0,-100.00,SSE,147,3.0,3.0,50,0.00,,,0.00,,2013-07-15 12:42:00,
2013-07-15 06:53:00,54.0,35.0,-100.00,SSE,147,3.0,3.0,50,0.00,,,0.00,,2013-07-15 12:53:00,
2013-07-15 07:01:00,54.0,36.0,-100.00,SE,137,3.0,4.0,49,0.00,,,0.00,,2013-07-15 13:01:00,
2013-07-15 07:11:00,54.0,36.0,-100.00,SE,137,3.0,4.0,49,0.00,,,0.00,,2013-07-15 13:11:00,
2013-07-15 07:22:00,54.0,36.0,-100.00,SE,137,3.0,4.0,49,0.00,,,0.00,,2013-07-15 13:22:00,
2013-07-15 08:02:00,58.0,37.0,-100.00,SE,131,4.0,6.0,45,0.00,,,0.00,,2013-07-15 14:02:00,
2013-07-15 08:33:00,60.0,37.0,-100.00,SE,131,5.0,6.0,42,0.00,,,0.00,,2013-07-15 14:33:00,
2013-07-15 08:42:00,62.0,37.0,-100.00,SE,141,5.0,7.0,41,0.00,,,0.00,,2013-07-15 14:42:00,
2013-07-15 08:58:00,62.0,37.0,-100.00,SE,141,5.0,7.0,41,0.00,,,0.00,,2013-07-15 14:58:00,
2013-07-15 09:34:00,64.0,36.0,-100.00,SE,141,6.0,11.0,35,0.00,,,0.00,,2013-07-15 15:34:00,
2013-07-15 09:44:00,65.0,36.0,-100.00,SE,143,7.0,11.0,33,0.00,,,0.00,,2013-07-15 15:44:00,
2013-07-15 09:53:00,65.0,36.0,-100.00,SE,143,7.0,11.0,33,0.00,,,0.00,,2013-07-15 15:53:00,
2013-07-15 10:02:00,65.0,35.0,-100.00,SE,137,8.0,11.0,33,0.00,,,0.00,,2013-07-15 16:02:00,
2013-07-15 10:32:00,67.0,34.0,-100.00,SE,131,8.0,11.0,30,0.00,,,-99.99,,2013-07-15 16:32:00,
2013-07-15 10:48:00,69.0,34.0,-100.00,SE,127,8.0,10.0,28,0.00,,,-99.99,,2013-07-15 16:48:00,
2013-07-15 11:02:00,69.0,34.0,-100.00,SE,127,8.0,10.0,28,0.00,,,-99.99,,2013-07-15 17:02:00,
2013-07-15 11:13:00,69.0,33.0,-100.00,SE,127,9.0,13.0,27,0.00,,,-99.99,,2013-07-15 17:13:00,
2013-07-15 11:23:00,69.0,33.0,-100.00,SE,127,9.0,13.0,27,0.00,,,-99.99,,2013-07-15 17:23:00,
2013-07-15 11:35:00,69.0,33.0,-100.00,SE,127,9.0,13.0,27,0.00,,,-99.99,,2013-07-15 17:35:00,
2013-07-15 11:45:00,71.0,33.0,-100.00,SE,145,6.0,9.0,24,0.00,,,-99.99,,2013-07-15 17:45:00,
2013-07-15 11:58:00,71.0,33.0,-100.00,SE,145,6.0,9.0,24,0.00,,,-99.99,,2013-07-15 17:58:00,
2013-07-15 12:03:00,72.0,33.0,-100.00,ESE,121,7.0,10.0,24,0.00,,,-99.99,,2013-07-15 18:03:00,
2013-07-15 12:14:00,72.0,33.0,-100.00,ESE,121,7.0,10.0,24,0.00,,,-99.99,,2013-07-15 18:14:00,
2013-07-15 12:33:00,75.0,32.0,-100.00,SE,138,9.0,12.0,20,0.00,,,-99.99,,2013-07-15 18:33:00,
2013-07-15 12:45:00,75.0,32.0,-100.00,SE,138,9.0,12.0,20,0.00,,,-99.99,,2013-07-15 18:45:00,
2013-07-15 13:02:00,77.0,33.0,-100.00,SE,131,8.0,11.0,20,0.00,,,-99.99,,2013-07-15 19:02:00,
2013-07-15 13:11:00,79.0,33.0,-100.00,SSE,155,9.0,17.0,19,0.00,,,-99.99,,2013-07-15 19:11:00,
2013-07-15 13:24:00,79.0,33.0,-100.00,SSE,155,9.0,17.0,19,0.00,,,-99.99,,2013-07-15 19:24:00,
2013-07-15 13:44:00,78.0,31.0,-100.00,SE,144,7.0,10.0,18,0.00,,,-99.99,,2013-07-15 19:44:00,
2013-07-15 13:56:00,78.0,31.0,-100.00,SE,144,7.0,10.0,18,0.00,,,-99.99,,2013-07-15 19:56:00,
2013-07-15 14:14:00,77.0,29.0,-100.00,SE,131,9.0,12.0,17,0.00,,,-99.99,,2013-07-15 20:14:00,
2013-07-15 14:30:00,79.0,29.0,-100.00,SSE,154,5.0,9.0,16,0.00,,,-99.99,,2013-07-15 20:30:00,
2013-07-15 14:33:00,77.0,29.0,-100.00,SE,131,9.0,12.0,17,0.00,,,-99.99,,2013-07-15 20:33:00,
2013-07-15 14:43:00,79.0,29.0,-100.00,SSW,212,4.0,12.0,16,0.00,,,-99.99,,2013-07-15 20:43:00,
2013-07-15 15:02:00,79.0,29.0,-100.00,SSE,154,5.0,9.0,16,0.00,,,-99.99,,2013-07-15 21:02:00,
2013-07-15 15:12:00,79.0,29.0,-100.00,SSE,154,5.0,9.0,16,0.00,,,-99.99,,2013-07-15 21:12:00,
2013-07-15 15:23:00,79.0,29.0,-100.00,SSE,154,5.0,9.0,16,0.00,,,-99.99,,2013-07-15 21:23:00,
2013-07-15 15:59:00,82.0,30.0,-100.00,SE,136,8.0,12.0,15,0.00,,,-99.99,,2013-07-15 21:59:00,
2013-07-15 16:22:00,82.0,30.0,-100.00,SSE,150,8.0,11.0,15,0.00,,,-99.99,,2013-07-15 22:22:00,
2013-07-15 16:43:00,83.0,31.0,-100.00,WNW,288,3.0,6.0,15,0.00,,,-99.99,,2013-07-15 22:43:00,
2013-07-15 16:54:00,83.0,31.0,-100.00,WNW,288,3.0,6.0,15,0.00,,,-99.99,,2013-07-15 22:54:00,
2013-07-15 17:03:00,83.0,31.0,-100.00,South,169,5.0,7.0,15,0.00,,,-99.99,,2013-07-15 23:03:00,
2013-07-15 17:24:00,83.0,30.0,-100.00,WSW,248,4.0,7.0,15,0.00,,,-99.99,,2013-07-15 23:24:00,
2013-07-15 17:44:00,83.0,31.0,-100.00,NW,308,6.0,11.0,15,0.00,,,-99.99,,2013-07-15 23:44:00,
2013-07-15 17:54:00,83.0,31.0,-100.00,NW,308,6.0,11.0,15,0.00,,,-99.99,,2013-07-15 23:54:00,
2013-07-15 18:03:00,82.0,29.0,-100.00,NW,319,6.0,11.0,14,0.00,,,-99.99,,2013-07-16 00:03:00,
2013-07-15 18:12:00,82.0,29.0,-100.00,NW,319,6.0,11.0,14,0.00,,,-99.99,,2013-07-16 00:12:00,
2013-07-15 18:24:00,80.0,30.0,-100.00,NW,325,12.0,16.0,16,0.00,,,-99.99,,2013-07-16 00:24:00,
2013-07-15 18:53:00,79.0,35.0,-100.00,NW,322,10.0,16.0,20,0.00,,,-99.99,,2013-07-16 00:53:00,
2013-07-15 19:03:00,79.0,33.0,-100.00,NW,315,8.0,11.0,19,0.00,,,-99.99,,2013-07-16 01:03:00,
2013-07-15 19:12:00,78.0,35.0,-100.00,NW,316,6.0,10.0,21,0.00,,,-99.99,,2013-07-16 01:12:00,
2013-07-15 19:24:00,78.0,35.0,-100.00,NW,316,6.0,10.0,21,0.00,,,-99.99,,2013-07-16 01:24:00,
2013-07-15 19:33:00,78.0,35.0,-100.00,NW,316,6.0,10.0,21,0.00,,,-99.99,,2013-07-16 01:33:00,
2013-07-15 19:44:00,75.0,34.0,-100.00,NW,316,8.0,12.0,22,0.00,,,-99.99,,2013-07-16 01:44:00,
2013-07-15 20:02:00,75.0,35.0,-100.00,NW,309,6.0,9.0,23,0.00,,,-99.99,,2013-07-16 02:02:00,
2013-07-15 20:23:00,74.0,35.0,-100.00,NW,320,5.0,8.0,24,0.00,,,-99.99,,2013-07-16 02:23:00,
2013-07-15 20:34:00,73.0,35.0,-100.00,NW,316,5.0,7.0,25,0.00,,,-99.99,,2013-07-16 02:34:00,
2013-07-15 20:44:00,72.0,36.0,-100.00,NW,311,4.0,6.0,26,0.00,,,-99.99,,2013-07-16 02:44:00,
2013-07-15 21:02:00,71.0,36.0,-100.00,NW,312,4.0,7.0,27,0.00,,,-99.99,,2013-07-16 03:02:00,
2013-07-15 21:13:00,70.0,37.0,-100.00,NW,318,4.0,6.0,29,0.00,,,-99.99,,2013-07-16 03:13:00,
2013-07-15 21:44:00,69.0,36.0,-100.00,NW,316,2.0,5.0,30,0.00,,,-99.99,,2013-07-16 03:44:00,
2013-07-15 21:57:00,69.0,36.0,-100.00,NW,316,2.0,5.0,30,0.00,,,-99.99,,2013-07-16 03:57:00,
2013-07-15 22:01:00,67.0,36.0,-100.00,NW,318,2.0,3.0,32,0.00,,,-99.99,,2013-07-16 04:01:00,
2013-07-15 22:12:00,65.0,37.0,-100.00,NNE,30,1.0,3.0,36,0.00,,,-99.99,,2013-07-16 04:12:00,
2013-07-15 22:22:00,65.0,37.0,-100.00,NNE,30,1.0,3.0,36,0.00,,,-99.99,,2013-07-16 04:22:00,
2013-07-15 22:43:00,63.0,38.0,-100.00,North,4,2.0,4.0,39,0.00,,,-99.99,,2013-07-16 04:43:00,
2013-07-15 22:53:00,63.0,38.0,-100.00,North,4,2.0,4.0,39,0.00,,,-99.99,,2013-07-16 04:53:00,
2013-07-15 23:01:00,62.0,36.0,-100.00,NNW,343,3.0,4.0,38,0.00,,,-99.99,,2013-07-16 05:01:00,
2013-07-15 23:11:00,62.0,36.0,-100.00,NNW,343,3.0,4.0,38,0.00,,,-99.99,,2013-07-16 05:11:00,
2013-07-15 23:32:00,64.0,38.0,-100.00,NW,308,4.0,6.0,38,0.00,,,-99.99,,2013-07-16 05:32:00,
2013-07-15 23:52:00,65.0,36.0,-100.00,NNW,342,6.0,8.0,34,0.00,,,-99.99,,2013-07-16 05:52:00,